DW8052 Weather Reports


time (UTC)temp
C
wind
direction
speed
KPH
gust
KPH
rain 1hr
cm
rain 24hr
cm
rain mn
cm
humidity
%
barometer
mb
20260905211213 15 266 19.3 40.2 0.00 0.05 0.00 48 1014.4
20260905210713 15 275 24.1 57.9 0.00 0.05 0.00 47 1014.3
20260905210213 15 270 41.8 61.2 0.00 0.05 0.00 47 1014.2
20260905205713 15 261 35.4 56.3 0.00 0.05 0.00 47 1014.2
20260905205213 15 267 35.4 53.1 0.00 0.05 0.00 48 1014.2
20260905204712 15 265 29.0 41.8 0.00 0.05 0.00 48 1013.9
20260905204213 15 263 29.0 40.2 0.00 0.05 0.00 49 1013.8
20260905203713 15 263 30.6 46.7 0.00 0.05 0.00 49 1013.8
20260905203214 15 259 29.0 41.8 0.00 0.05 0.00 50 1013.9
20260905202713 15 261 32.2 41.8 0.00 0.05 0.00 49 1013.4
20260905201713 15 264 30.6 38.6 0.00 0.05 0.00 50 1013.7
20260905201213 15 247 25.7 32.2 0.00 0.05 0.00 49 1013.7
20260905200213 15 219 20.9 32.2 0.00 0.05 0.00 48 1013.5
20260905195713 15 214 17.7 27.4 0.00 0.05 0.00 48 1013.6
20260905195213 15 239 19.3 32.2 0.00 0.05 0.00 49 1013.5
20260905194713 15 262 20.9 33.8 0.00 0.05 0.00 48 1013.3
20260905194213 15 249 14.5 29.0 0.00 0.05 0.00 47 1013.1
20260905193713 15 244 22.5 25.7 0.00 0.05 0.00 47 1013.1
20260905192713 15 207 6.4 19.3 0.00 0.05 0.00 47 1013.3
20260905192213 15 186 9.7 19.3 0.00 0.05 0.00 48 1013.3
20260905191713 15 201 16.1 27.4 0.00 0.05 0.00 48 1013.0
20260905191213 15 252 19.3 27.4 0.00 0.05 0.00 47 1012.9
20260905190713 15 276 16.1 41.8 0.00 0.05 0.00 47 1012.3
20260905190213 15 282 27.4 46.7 0.00 0.05 0.00 46 1012.3
20260905185713 15 276 29.0 45.1 0.00 0.05 0.00 46 1012.0
20260905185212 15 274 22.5 38.6 0.00 0.05 0.00 46 1012.5
20260905184713 15 276 22.5 38.6 0.00 0.05 0.00 46 1012.1
20260905183713 16 277 25.7 37.0 0.00 0.05 0.00 45 1011.8
20260905182713 16 261 20.9 35.4 0.00 0.05 0.00 45 1011.7
20260905182212 16 271 29.0 41.8 0.00 0.05 0.00 45 1011.9
20260905181212 16 270 27.4 46.7 0.00 0.05 0.00 44 1011.4
20260905180213 16 272 24.1 40.2 0.00 0.05 0.00 44 1010.9
20260905175713 16 259 29.0 45.1 0.00 0.05 0.00 43 1011.4
20260905174713 16 247 35.4 49.9 0.00 0.05 0.00 42 1011.1
20260905174213 16 248 30.6 46.7 0.00 0.05 0.00 42 1011.1
20260905173713 16 263 29.0 66.0 0.00 0.05 0.00 41 1011.0
20260905173213 16 274 40.2 69.2 0.00 0.05 0.00 41 1010.4
20260905172712 16 269 37.0 66.0 0.00 0.05 0.00 41 1009.9
20260905172212 16 280 37.0 61.2 0.00 0.05 0.00 42 1009.7
20260905171713 16 292 32.2 56.3 0.00 0.05 0.00 42 1009.6
20260905171212 17 280 32.2 53.1 0.00 0.05 0.00 42 1010.0
20260905170212 17 269 33.8 49.9 0.00 0.05 0.00 42 1010.3
20260905165713 17 267 27.4 41.8 0.00 0.05 0.00 42 1010.2
20260905165213 17 280 38.6 49.9 0.00 0.05 0.00 41 1009.9
20260905164712 17 279 29.0 49.9 0.00 0.05 0.00 41 1010.3
20260905164213 17 262 37.0 48.3 0.00 0.05 0.00 41 1010.6
20260905163713 17 277 35.4 46.7 0.00 0.05 0.00 41 1010.7
20260905163212 17 254 22.5 48.3 0.00 0.05 0.00 41 1010.8
20260905162213 18 254 14.5 27.4 0.00 0.05 0.00 42 1011.3
20260905161712 18 254 17.7 27.4 0.00 0.05 0.00 41 1011.1
20260905161212 18 273 16.1 27.4 0.00 0.05 0.00 40 1011.0
20260905160212 18 275 19.3 27.4 0.00 0.05 0.00 39 1010.8
20260905155713 18 272 25.7 35.4 0.00 0.05 0.00 38 1010.8
20260905155212 18 261 19.3 33.8 0.00 0.05 0.00 38 1010.9
20260905154712 18 272 25.7 32.2 0.00 0.05 0.00 38 1010.7
20260905153712 18 265 32.2 46.7 0.00 0.05 0.00 37 1010.9
20260905153212 18 259 33.8 46.7 0.00 0.05 0.00 37 1011.1
20260905152712 18 255 35.4 62.8 0.00 0.05 0.00 37 1011.0
20260905152213 18 262 48.3 72.4 0.00 0.05 0.00 37 1011.0
20260905151713 19 259 40.2 66.0 0.00 0.05 0.00 38 1010.8
20260905151212 19 253 38.6 56.3 0.00 0.05 0.00 39 1010.7
20260905150712 19 258 35.4 56.3 0.00 0.05 0.00 40 1010.6
20260905145712 19 263 38.6 53.1 0.00 0.05 0.00 43 1010.6
20260905145213 19 244 30.6 45.1 0.00 0.05 0.00 46 1010.4
20260905144712 19 242 29.0 37.0 0.00 0.05 0.00 47 1010.3
20260905144212 19 248 25.7 33.8 0.00 0.05 0.00 49 1010.2
20260905143713 20 252 22.5 33.8 0.00 0.05 0.00 48 1010.2
20260905143212 20 252 22.5 33.8 0.00 0.05 0.00 49 1010.0
20260905142713 20 258 19.3 27.4 0.00 0.05 0.00 49 1009.8
20260905142212 20 251 20.9 27.4 0.00 0.05 0.00 49 1009.7
20260905141712 20 261 20.9 27.4 0.00 0.05 0.00 49 1009.7
20260905141213 20 261 20.9 29.0 0.00 0.05 0.00 49 1009.5
20260905140713 20 262 27.4 37.0 0.00 0.05 0.00 49 1009.4
20260905140212 20 262 25.7 33.8 0.00 0.05 0.00 49 1009.3
20260905135712 20 262 27.4 37.0 0.00 0.05 0.05 49 1009.3
20260905135212 20 268 27.4 37.0 0.00 0.05 0.05 49 1009.1
20260905134212 20 259 32.2 41.8 0.00 0.05 0.05 50 1009.1
20260905133712 20 257 32.2 41.8 0.00 0.05 0.05 51 1009.0
20260905133213 20 256 29.0 41.8 0.00 0.05 0.05 52 1008.7
20260905132712 20 254 25.7 32.2 0.00 0.05 0.05 52 1008.8
20260905132212 20 253 22.5 29.0 0.00 0.05 0.05 53 1009.1
20260905131712 20 257 22.5 27.4 0.00 0.05 0.05 53 1008.9
20260905130712 20 259 19.3 25.7 0.00 0.05 0.05 53 1008.9
20260905130212 20 265 19.3 25.7 0.00 0.05 0.05 53 1008.8
20260905125712 20 266 20.9 27.4 0.00 0.05 0.05 53 1008.7
20260905124713 20 261 20.9 29.0 0.00 0.05 0.05 54 1008.8
20260905124212 20 262 16.1 24.1 0.00 0.05 0.05 55 1009.0
20260905123712 20 268 19.3 24.1 0.00 0.05 0.05 56 1008.9
20260905122712 20 250 17.7 27.4 0.00 0.05 0.05 58 1008.7
20260905122212 20 232 17.7 29.0 0.00 0.05 0.05 57 1008.9
20260905121712 20 222 8.0 14.5 0.00 0.05 0.05 56 1008.9
20260905121212 20 247 11.3 16.1 0.00 0.05 0.05 55 1008.5
20260905120713 20 245 9.7 12.9 0.00 0.05 0.05 55 1008.6
20260905120212 20 268 8.0 12.9 0.00 0.05 0.05 54 1008.4
20260905115712 21 267 8.0 11.3 0.00 0.05 0.05 53 1008.2
20260905115212 21 283 9.7 19.3 0.00 0.05 0.05 53 1008.2
20260905114712 21 304 14.5 20.9 0.00 0.05 0.05 53 1008.2
20260905113712 21 303 16.1 24.1 0.00 0.05 0.05 52 1008.1
20260905113212 21 303 19.3 24.1 0.00 0.05 0.05 53 1008.2
20260905112712 21 304 20.9 32.2 0.00 0.05 0.05 52 1008.3
20260905112212 21 304 22.5 25.7 0.00 0.05 0.05 53 1008.2
20260905111712 21 308 22.5 25.7 0.00 0.05 0.05 53 1008.1
20260905111212 21 304 17.7 29.0 0.00 0.05 0.05 53 1008.2
20260905110713 21 313 22.5 29.0 0.00 0.05 0.05 53 1008.3
20260905105712 21 317 20.9 27.4 0.00 0.05 0.05 52 1008.0
20260905105212 21 320 22.5 27.4 0.00 0.05 0.05 52 1008.0
20260905104712 21 319 24.1 32.2 0.00 0.05 0.05 52 1008.0
20260905102712 22 327 27.4 32.2 0.00 0.05 0.05 49 1008.1
20260905102212 22 310 25.7 32.2 0.00 0.05 0.05 49 1008.1
20260905101712 22 317 25.7 33.8 0.00 0.05 0.05 48 1008.0
20260905101212 22 314 25.7 35.4 0.00 0.05 0.05 48 1007.9
20260905100712 22 318 27.4 33.8 0.00 0.05 0.05 47 1007.8
20260905100212 22 310 24.1 32.2 0.00 0.05 0.05 47 1008.0
20260905095212 22 315 22.5 32.2 0.00 0.05 0.05 47 1007.7
20260905094712 22 308 20.9 33.8 0.00 0.05 0.05 47 1007.8
20260905094212 22 308 20.9 33.8 0.00 0.05 0.05 46 1007.8
20260905093712 22 310 22.5 32.2 0.00 0.05 0.05 46 1007.7
20260905092712 22 311 24.1 32.2 0.00 0.05 0.05 46 1007.7
20260905092212 22 305 22.5 32.2 0.00 0.05 0.05 46 1007.8
20260905090712 22 316 25.7 40.2 0.00 0.05 0.05 46 1007.9
20260905090211 22 309 27.4 37.0 0.00 0.05 0.05 46 1007.7
20260905085712 22 312 32.2 41.8 0.00 0.05 0.05 46 1007.8
20260905084212 21 320 27.4 41.8 0.00 0.05 0.05 52 1007.5
20260905083711 21 331 27.4 33.8 0.00 0.05 0.05 54 1007.6
20260905083212 21 331 25.7 37.0 0.00 0.05 0.05 55 1007.8
20260905082712 21 315 25.7 35.4 0.00 0.05 0.05 55 1008.1
20260905082212 21 320 32.2 49.9 0.00 0.05 0.05 56 1007.7
20260905081711 21 345 22.5 32.2 0.00 0.05 0.05 59 1008.2
20260905081211 21 334 20.9 29.0 0.00 0.05 0.05 60 1008.2
20260905080712 21 317 22.5 32.2 0.00 0.05 0.05 60 1008.5
20260905080211 21 311 25.7 29.0 0.00 0.05 0.05 60 1008.4
20260905075712 20 322 22.5 29.0 0.00 0.05 0.05 60 1008.4
20260905075212 20 316 19.3 25.7 0.00 0.05 0.05 61 1008.6
20260905074712 20 297 16.1 25.7 0.00 0.05 0.05 61 1008.6
20260905073711 21 329 25.7 35.4 0.00 0.05 0.05 59 1008.3
20260905073212 21 337 22.5 33.8 0.03 0.05 0.05 58 1008.1
20260905072212 21 300 20.9 35.4 0.05 0.05 0.05 59 1008.3
20260905071711 21 282 30.6 46.7 0.05 0.05 0.05 59 1009.0
20260905071212 21 274 32.2 45.1 0.05 0.05 0.05 60 1009.2
20260905070712 20 278 27.4 41.8 0.05 0.05 0.05 62 1009.5
20260905065712 20 278 25.7 32.2 0.05 0.05 0.05 62 1008.9
20260905064211 21 282 32.2 48.3 0.05 0.05 0.05 60 1008.9
20260905063711 21 287 25.7 53.1 0.05 0.05 0.05 58 1008.7
20260905063211 22 278 48.3 62.8 0.03 0.03 0.03 53 1009.5
20260905062712 23 270 57.9 78.9 0.00 0.00 0.00 46 1009.3
20260905061711 26 255 62.8 88.5 0.00 0.00 0.00 36 1008.7
20260905061211 26 249 72.4 98.2 0.00 0.00 0.00 33 1008.4
20260905060711 27 237 59.5 77.2 0.00 0.00 0.00 32 1007.9
20260905055711 28 276 35.4 59.5 0.00 0.00 0.00 27 1007.2
20260905055211 28 286 33.8 59.5 0.00 0.00 0.00 27 1007.1
20260905054711 29 274 32.2 51.5 0.00 0.00 0.00 27 1006.6
20260905054211 29 277 45.1 59.5 0.00 0.00 0.00 27 1006.4
20260905053711 29 275 56.3 78.9 0.00 0.00 0.00 26 1006.2
20260905053211 29 280 41.8 69.2 0.00 0.00 0.00 26 1005.7
20260905052211 29 270 54.7 77.2 0.00 0.00 0.00 26 1005.6
20260905051711 29 271 53.1 77.2 0.00 0.00 0.00 26 1005.4
20260905051211 29 278 46.7 74.0 0.00 0.00 0.00 25 1005.6
20260905050711 29 271 46.7 77.2 0.00 0.00 0.00 25 1005.5
20260905050211 30 263 56.3 75.6 0.00 0.00 0.00 25 1005.3
20260905045711 30 275 41.8 74.0 0.00 0.00 0.00 24 1005.4
20260905045211 30 274 48.3 66.0 0.00 0.00 0.00 24 1005.4
20260905044711 30 269 37.0 62.8 0.00 0.00 0.00 24 1005.3
20260905044212 30 261 33.8 51.5 0.00 0.00 0.00 24 1005.2
20260905043711 30 270 37.0 72.4 0.00 0.00 0.00 22 1005.2
20260905042711 30 275 22.5 33.8 0.00 0.00 0.00 27 1005.5
20260905042211 30 301 27.4 35.4 0.00 0.00 0.00 26 1005.2
20260905041711 30 318 25.7 41.8 0.00 0.00 0.00 27 1005.1
20260905041211 30 328 29.0 41.8 0.00 0.00 0.00 27 1005.0
20260905040211 29 335 27.4 38.6 0.00 0.00 0.00 27 1005.3
20260905035711 29 329 25.7 40.2 0.00 0.00 0.00 28 1005.2
20260905035210 28 340 24.1 38.6 0.00 0.00 0.00 27 1005.5
20260905034711 28 338 32.2 48.3 0.00 0.00 0.00 27 1005.4
20260905034211 28 346 25.7 46.7 0.00 0.00 0.00 27 1005.6
20260905033711 28 334 20.9 41.8 0.00 0.00 0.00 28 1005.7
20260905033210 28 343 22.5 40.2 0.00 0.00 0.00 28 1005.8
20260905032211 28 354 30.6 46.7 0.00 0.00 0.00 28 1006.2
20260905031710 28 345 37.0 64.4 0.00 0.00 0.00 28 1006.4
20260905031211 27 347 30.6 64.4 0.00 0.00 0.00 29 1006.5
20260905030211 27 337 38.6 51.5 0.00 0.00 0.00 28 1006.9
20260905024711 27 339 19.3 32.2 0.00 0.00 0.00 32 1007.2
20260905024211 27 0 25.7 41.8 0.00 0.00 0.00 31 1007.5
20260905023710 27 341 27.4 49.9 0.00 0.00 0.00 30 1007.7
20260905023211 27 348 19.3 45.1 0.00 0.00 0.00 31 1008.0
20260905022711 27 335 19.3 27.4 0.00 0.00 0.00 32 1008.2
20260905022211 27 345 25.7 37.0 0.00 0.00 0.00 31 1008.3
20260905021711 27 341 27.4 40.2 0.00 0.00 0.00 30 1008.7
20260905021211 27 345 29.0 49.9 0.00 0.00 0.00 30 1008.8
20260905020711 27 351 25.7 35.4 0.00 0.00 0.00 32 1009.0
20260905020210 27 345 27.4 48.3 0.00 0.00 0.00 30 1009.1
20260905015711 27 344 22.5 35.4 0.00 0.00 0.00 30 1009.4
20260905015211 26 1 20.9 32.2 0.00 0.00 0.00 30 1009.5
20260905014711 26 356 25.7 33.8 0.00 0.00 0.00 30 1009.7
20260905014211 26 346 22.5 32.2 0.00 0.00 0.00 31 1009.8
20260905013711 26 353 19.3 27.4 0.00 0.00 0.00 31 1010.0
20260905013211 26 353 20.9 32.2 0.00 0.00 0.00 31 1010.1
20260905012711 26 347 14.5 25.7 0.00 0.00 0.00 31 1010.4
20260905012210 26 349 14.5 27.4 0.00 0.00 0.00 32 1010.6
20260905011710 26 342 16.1 27.4 0.00 0.00 0.00 32 1010.5
20260905011210 25 337 12.9 27.4 0.00 0.00 0.00 33 1010.9
20260905010711 25 330 16.1 22.5 0.00 0.00 0.00 33 1011.0
20260905010211 25 345 14.5 20.9 0.00 0.00 0.00 33 1011.4
20260905005711 25 347 9.7 19.3 0.00 0.00 0.00 33 1011.4
20260905005210 25 329 9.7 22.5 0.00 0.00 0.00 33 1011.5
20260905004711 24 343 11.3 24.1 0.00 0.00 0.00 33 1011.7
20260905004211 24 328 20.9 25.7 0.00 0.00 0.00 33 1012.0
20260905003710 24 340 19.3 29.0 0.00 0.00 0.00 34 1012.0
20260905002711 23 335 19.3 24.1 0.00 0.00 0.00 35 1012.4
20260905002211 23 341 19.3 25.7 0.00 0.00 0.00 34 1012.6
20260905001210 23 347 20.9 27.4 0.00 0.00 0.00 35 1012.8
20260905000211 22 349 19.3 27.4 0.00 0.00 0.00 37 1013.4
20260904235711 22 334 12.9 19.3 0.00 0.00 0.00 41 1013.4
20260904235210 22 354 6.4 16.1 0.00 0.00 0.00 42 1013.3
20260904234710 21 348 12.9 19.3 0.00 0.00 0.00 41 1013.3
20260904234211 21 345 12.9 19.3 0.00 0.00 0.00 42 1013.7
20260904233711 21 337 11.3 16.1 0.00 0.00 0.00 42 1014.0
20260904232710 21 323 14.5 19.3 0.00 0.00 0.00 43 1014.1
20260904232210 21 322 8.0 19.3 0.00 0.00 0.00 44 1014.0
20260904231711 21 337 11.3 19.3 0.00 0.00 0.00 44 1014.2
20260904231211 20 320 14.5 19.3 0.00 0.00 0.00 45 1014.2
20260904230710 20 325 11.3 19.3 0.00 0.00 0.00 47 1014.4
20260904230210 20 335 9.7 19.3 0.00 0.00 0.00 48 1014.5
20260904225211 18 321 11.3 19.3 0.00 0.00 0.00 51 1014.7
20260904224210 18 325 16.1 22.5 0.00 0.00 0.00 52 1015.0
20260904223710 18 316 16.1 20.9 0.00 0.00 0.00 53 1015.1
20260904223210 17 311 17.7 20.9 0.00 0.00 0.00 53 1015.2
20260904222711 17 326 16.1 20.9 0.00 0.00 0.00 54 1015.2
20260904221711 17 328 14.5 20.9 0.00 0.00 0.00 55 1015.2
20260904221210 17 313 14.5 19.3 0.00 0.00 0.00 55 1015.0
20260904220710 17 323 16.1 22.5 0.00 0.00 0.00 56 1015.1
20260904220210 17 320 16.1 22.5 0.00 0.00 0.00 57 1015.1
20260904215710 16 329 19.3 24.1 0.00 0.00 0.00 57 1015.0
20260904215211 16 315 16.1 22.5 0.00 0.00 0.00 57 1015.3
20260904214710 16 315 17.7 22.5 0.00 0.00 0.00 57 1015.4
20260904213210 16 324 20.9 25.7 0.00 0.00 0.00 58 1015.4
20260904212711 16 322 22.5 25.7 0.00 0.00 0.00 58 1015.4
20260904212210 16 321 20.9 25.7 0.00 0.00 0.00 59 1015.3